Tracking 30061 objects as of 8-Dec-2024
HD Live streaming from Space Station
objects crossing your sky now

STARLINK-5387

Track STARLINK-5387 now!
10-day predictions
STARLINK-5387 is classified as:


NORAD ID: 54842
Int'l Code: 2022-177Y
Perigee: 565.5 km
Apogee: 566.9 km
Inclination: 43.0 °
Period: 95.8 minutes
Semi major axis: 6937 km
RCS: Unknown
Launch date: December 28, 2022
Source: United States (US)
Launch site: AIR FORCE EASTERN TEST RANGE (AFETR)
Your satellite tracking list
Your tracking list is empty




NASA's NSSDC Master Catalog

Two Line Element Set (TLE):
1 54842U 22177Y   24342.80498673  .00000640  00000-0  62446-4 0  9998
2 54842  43.0017  95.4265 0000954 269.8711  90.2021 15.02538291108237
Source of the keplerian elements: AFSPC